Regional Weather Roundup
Issued by NWS

Home | Current Version | Previous Version | Text Only | Print | Product List | Glossary On
Versions: 1 2 3 4 5 6 7 8 9 10 11 12 13 14 15 16 17 18 19 20 21 22 23 24 25 26 27 28 29 30 31 32 33 34 35 36 37 38 39 40 41 42 43 44 45 46 47 48 49 50
000
ASUS43 KDTX 241410
RWRMI
MICHIGAN HOURLY REGIONAL WEATHER ROUNDUP
NATIONAL WEATHER SERVICE DETROIT/PONTIAC MI
1000 AM EDT SUN MAY 24 2015

NOTE: "FAIR" INDICATES FEW OR NO CLOUDS BELOW 12,000 FEET WITH NO
SIGNIFICANT WEATHER AND/OR OBSTRUCTION TO VISIBILITY.

MIZ047>049-052>055-059>063-066>070-074>076-081>083-241500-
SOUTHEAST LOWER MICHIGAN

CITY           SKY/WX    TMP DP  RH WIND       PRES   REMARKS
ADRIAN         MOSUNNY   70  49  47 SW9       30.27F
ALMA           CLOUDY    71  50  46 S3        30.22F
ANN ARBOR      MOSUNNY   70  53  54 SW8       30.26S
BAD AXE        MOSUNNY   69  46  44 SW5       30.23S
CARO           PTSUNNY   68  52  56 SW5       30.23S
DETROIT CITY   MOSUNNY   70  48  45 W7        30.26F
DETROIT        PTSUNNY   71  52  50 S7        30.27S
FLINT          PTSUNNY   74  49  41 W6        30.24F
GROSSE ILE     SUNNY     66  57  72 S8        30.26S
HILLSDALE      PTSUNNY   70  48  45 S8        30.26F
HOWELL         PTSUNNY   72  50  45 S5        30.25S

CITY           SKY/WX    TMP DP  RH WIND       PRES   REMARKS
JACKSON        MOSUNNY   72  50  45 S10       30.24F
LAMBERTVILLE   MOSUNNY   73  48  40 SW3       30.28S
LANSING        PTSUNNY   70  49  47 SW9       30.24F
LAPEER         FAIR      71  46  40 W5        30.25R
MASON          MOSUNNY   69  49  49 SW3       30.24F
MONROE         SUNNY     73  50  43 SW8       30.26S
MT. CLEMENS    PTSUNNY   71  51  47 SW7       30.23S
PONTIAC        PTSUNNY   72  48  42 W8        30.25S
PORT HOPE        N/A     70  46  42 SW5       30.20F
PORT HURON     MOSUNNY   68  52  56 SW6       30.25S
TRI CITIES     CLOUDY    70  49  47 SW10      30.22F
MIDLAND        FAIR      68  49  50 SW5       30.21F
TROY           MOSUNNY   70  49  45 SW5       30.27S
SAGINAW HB     CLOUDY    70  46  43 SW7       30.22S
$$
MIZ043>046-050>051-056>058-064>065-071>073-077>080-241500-
SOUTHWEST LOWER MICHIGAN

CITY           SKY/WX    TMP DP  RH WIND       PRES   REMARKS
BATTLE CREEK   PTSUNNY   69  50  50 S9        30.24F
BENTON HARBOR  CLOUDY    64  51  62 SE5       30.20S
BIG RAPIDS     CLOUDY    67  46  48 SE6       30.19F
COLDWATER      CLOUDY    67  50  55 S7        30.25S
FREMONT        FAIR      64  48  55 S3        30.20S
HOLLAND        PTSUNNY   66  52  60 S5        30.21F
GRAND RAPIDS   CLOUDY    71  50  47 S7        30.21F
IONIA          FAIR      70  48  44 S3        30.22F
KALAMAZOO      CLOUDY    67  51  56 S8        30.23F
LUDINGTON      CLOUDY    71  50  46 SW5       30.17F
MARSHALL       PTSUNNY   70  51  50 S6        30.23F
MOUNT PLEASANT CLOUDY    70  50  49 SW3       30.21S
MUSKEGON       CLOUDY    69  49  48 S6        30.20F
SOUTH HAVEN    CLOUDY    67  49  54 S6        30.21S
$$
MIZ016>042-241500-
NORTHERN LOWER MICHIGAN

CITY           SKY/WX    TMP DP  RH WIND       PRES   REMARKS
ALPENA         CLOUDY    69  43  38 W8        30.18F
BEAVER ISLAND  CLOUDY    65  37  35 SW7       30.15F
BELLAIRE       PTSUNNY   67  45  45 CALM      30.17F
CADILLAC       PTSUNNY   70  48  44 S8        30.19S
CHARLEVOIX     PTSUNNY   62  47  58 E3        30.19F
FRANKFORT      CLOUDY    71  38  30 S9        30.16F
GAYLORD        CLOUDY    69  42  37 SW6       30.19F
GRAYLING       PTSUNNY   68  45  42 CALM      30.20F
HARBOR SPRINGS CLOUDY    63  42  46 CALM      30.17F
HOUGHTON LAKE  PTSUNNY   69  42  37 SW3       30.20F
MANISTEE       CLOUDY    66  46  48 S3        30.18S
OSCODA         MOSUNNY   71  45  39 S5        30.19F
PELLSTON       CLOUDY    67  42  40 VRB3      30.17F
ROGERS CITY    PTSUNNY   69  43  39 W7G16     30.17F
TRAVERSE CITY  PTSUNNY   63  44  50 NE3       30.16F
$$
MIZ007>008-015-241500-
EASTERN UPPER MICHIGAN

CITY           SKY/WX    TMP DP  RH WIND       PRES   REMARKS
KINROSS        MOSUNNY   66  45  45 W7        30.15F
MACKINAC ISLAN CLOUDY    61  42  50 SW7       30.16F
NEWBERRY       CLOUDY    67  45  45 SW10G16   30.14F
S. S. MARIE    SUNNY     63  44  50 CALM      30.13F
MUNISING         N/A     70  46  42 S3        30.11F
$$
MIZ004>006-011>014-085-241500-
CENTRAL UPPER MICHIGAN

CITY           SKY/WX    TMP DP  RH WIND       PRES   REMARKS
MANISTIQUE     CLOUDY    58  46  63 CALM      30.14S
ESCANABA       PTSUNNY   61  46  59 SE7       30.13S
MENOMINEE      CLOUDY    66  46  48 CALM      30.13S
SAWYER-GWINN   MOSUNNY   66  45  45 W3        30.13F
$$
MIZ001>003-009>011-084-241500-
WESTERN UPPER MICHIGAN

CITY           SKY/WX    TMP DP  RH WIND       PRES   REMARKS
IRON MOUNTAIN  PTSUNNY   68  47  46 CALM      30.13S
HOUGHTON       MOSUNNY   67  45  45 W9        30.09F
COPPER HARBOR    N/A     58  42  55 N7        30.06F
IRONWOOD       CLOUDY    61  50  67 CALM      30.10S
$$

ABBREVIATIONS USED IN REMARKS
   TC - TEMPERATURE IN CELSIUS
  WCI - WIND CHILL INDEX
   HX - HEAT INDEX
  VSB - VISIBILITY




USA.gov is the U.S. government's official web portal to all federal, state and local government web resources and services.